Regional Weather Roundup
Issued by NWS Wilmington, NC

Home | Current Version | Previous Version | Text Only | Print | Product List | Glossary On
Versions: 1 2 3 4 5 6 7 8 9 10 11 12 13 14 15 16 17 18 19 20 21 22 23 24 25 26 27 28 29 30 31 32 33 34 35 36 37 38 39 40 41 42 43 44 45 46 47 48 49
000
ASUS42 KILM 051713
RWRILM
RWRILM
REGIONAL HOURLY WEATHER ROUNDUP
NATIONAL WEATHER SERVICE WILMINGTON NC
100 PM EDT SUN JUL 05 2015

NOTE: "FAIR" INDICATES FEW OR NO CLOUDS BELOW 12,000 FEET WITH NO
SIGNIFICANT WEATHER AND/OR OBSTRUCTIONS TO VISIBILITY.

...............WFO WILMINGTON COUNTY WARNING AREA...............

......COASTAL NC AND SC COUNTIES......

CITY           SKY/WX    TMP DP  RH WIND       PRES   REMARKS
WILMINGTON     SUNNY     89  69  51 VRB6      30.13F HX  93
N MYRTLE BEACH SUNNY     84  73  69 S13       30.15S HX  90
MYRTLE BEACH   MOSUNNY   86  72  62 S14       30.16  HX  92

......INLAND NC AND SC COUNTIES.......

CITY           SKY/WX    TMP DP  RH WIND       PRES   REMARKS
LUMBERTON      MOSUNNY   88  70  55 S6        30.12S HX  93
ELIZABETHTOWN  SUNNY     86  69  57 S7        30.13F HX  90
WHITEVILLE     SUNNY     87  70  58 S6        30.13S HX  91
FLORENCE       MOSUNNY   87  71  58 S7        30.12F HX  93
DARLINGTON     SUNNY     88  70  55 S8G17     30.13S HX  92

....................REST OF NORTH CAROLINA......................

.........EASTERN NC.........

CITY           SKY/WX    TMP DP  RH WIND       PRES   REMARKS
CAPE HATTERAS  MOSUNNY   82  73  74 SW12      30.16S
JACKSONVILLE   MOSUNNY   90  68  48 S8        30.13S HX  93
MOREHEAD CITY  PTSUNNY   84  75  74 SW14      30.15S HX  92
KENANSVILLE    MOSUNNY   86  69  56 CALM      30.13F HX  90
NEW BERN       MOSUNNY   89  71  55 S9        30.14F HX  95
ELIZABETH CITY MOSUNNY   82  74  76 SE9       30.13S

.........CENTRAL NC.........

CITY           SKY/WX    TMP DP  RH WIND       PRES   REMARKS
RALEIGH DURHAM PTSUNNY   86  71  60 SW6       30.12S HX  91
ROCKY MOUNT    PTSUNNY   89  71  55 SW6       30.12R HX  95
ROANOKE RAPIDS NOT AVBL
FAYETTEVILLE   MOSUNNY   88  70  55 S8        30.11F HX  93
HOFFMAN        MOSUNNY   88  68  52 SW6G14    30.15F HX  91

.........WESTERN NC.........

CITY           SKY/WX    TMP DP  RH WIND       PRES   REMARKS
CHARLOTTE      PTSUNNY   86  66  51 S12       30.12F
GREENSBORO     CLOUDY    83  68  60 SW8G16    30.12F
HICKORY        NOT AVBL
BOONE          NOT AVBL
ASHEVILLE      NOT AVBL

.....................REST OF SOUTH CAROLINA.....................

.........EASTERN SC.........

CITY           SKY/WX    TMP DP  RH WIND       PRES   REMARKS
CHARLESTON     MOSUNNY   87  71  58 S7        30.14F HX  93
BEAUFORT MCAS  MOSUNNY   90  74  59 S5        30.13F THUNDER HX  99
HILTON HEAD    NOT AVBL

.........CENTRAL SC.........

CITY           SKY/WX    TMP DP  RH WIND       PRES   REMARKS
COLUMBIA       MOSUNNY   88  65  46 SW10      30.11F HX  90
ORANGEBURG     SUNNY     88  68  51 VRB5      30.13F HX  91
SUMTER SHAW    MOSUNNY   87  68  52 VRB3      30.11F HX  91

.........WESTERN SC.........

CITY           SKY/WX    TMP DP  RH WIND       PRES   REMARKS
GREENVILLE     NOT AVBL
ROCK HILL      MOSUNNY   85  68  56 SW9       30.11F
ANDERSON       PTSUNNY   80  66  62 SW12      30.12F
CLEMSON        NOT AVBL
GREENWOOD      PTSUNNY   82  68  62 W12       30.14S


...................COASTAL AND OFFSHORE REPORTS..................

................LOCAL PIERS AND NC RESERVE................


STATION/POSITION TIME  SKY/WX   TEMP    WIND        PRES    VSBY
                                AIR SEA DIR/SP/G
                 (UTC)          (F)     (DEG/KT/KT) (MB)    (MI)
JOHNY MRCER PIER 1600            84 79  200/  7/  9 1020.5S
NC RESRV MASNBRO NOT AVBL
OCEAN CREST PIER NOT AVBL
SPRINGMAID  PIER 1600            80 81  160/ 10/ 12 1020.9F


................COASTAL AND OFFSHORE BUOYS................


STATION/POSITION TIME  SKY/WX   TEMP    WIND        PRES    VSBY
                                AIR SEA DIR/SP/G
                 (UTC)          (F)     (DEG/KT/KT) (MB)    (MI)
DIMNDSHOAL 41025 1650            80 81  230/ 14/ 16 1020.8S
WVE H/P(F/S)=  3/ 5 WND WVE H/P(F/S)=  3/ 5 SWL H/P/D(F/S/D)=  2/140/ 9

CAPE LOOKOUT     1700            82     220/  9/ 12 1020.8F
ONSLOW BAY 41036 NOT AVBL
5 WRITEBCH 41038 1608            80 79  200/ 12/ 14 1020.9F
MASONBORO  41110 1619               79                N/A
WVE H/P(F/S)=  2/ 9 WND WVE H/P(F/S)=  2/ 9

WILM HARBR 41108 1611               82                N/A
WVE H/P(F/S)=  2/ 5 WND WVE H/P(F/S)=  2/ 5

27WRITEBCH 41037 1600               80  230/ 10/ 12   N/A
FRYING PAN 41013 1650            81 79  210/  8/  8 1021.7R
WVE H/P(F/S)=  3/ 9 WND WVE H/P(F/S)=  2/ 3 SWL H/P/D(F/S/D)=  2/130/ 9

SUNST NRSH 41024 1608            79     200/  8/ 12 1021.0S
CAPRS NRSH 41029 1608            82     240/ 12/ 14 1021.5S
EDISTO     41004 1650            81 82  230/ 10/ 12 1021.2R
WVE H/P(F/S)=  3/ 9 WND WVE H/P(F/S)=  2/ 4 SWL H/P/D(F/S/D)=  2/ 9



..........OFFSHORE BUOYS BEYOND 100 NM OFFSHORE...........
.....IN A TRIANGLE---HAT TO BERMUDA TO BAHAMAS TO HAT.....


STATION/POSITION TIME  SKY/WX   TEMP    WIND        PRES    VSBY
                                AIR SEA DIR/SP/G
                 (UTC)          (F)     (DEG/KT/KT) (MB)    (MI)
150E HAT   41001 NOT AVBL
W BERMUDA  41048 1650            81 81  230/  8/  8 1024.7F
WVE H/P(F/S)=  4/ 8 WND WVE H/P(F/S)=  2/ 3 SWL H/P/D(F/S/D)=  3/260/ 8

ATLANTIC S 41049 1550            83 84  100/ 12/ 14 1025.5
WVE H/P(F/S)=  4/ 8 WND WVE H/P(F/S)=  2/ 5 SWL H/P/D(F/S/D)=  3/130/ 8

E BAHAMAS  41046 1650            83 84  100/ 12/ 14 1023.2F
WVE H/P(F/S)=  5/ 7 WND WVE H/P(F/S)=  2/ 5 SWL H/P/D(F/S/D)=  5/120/ 7

NE BAHAMAS 41047 1650            83 84  140/  6/  8 1024.1S
WVE H/P(F/S)=  4/ 8 WND WVE H/P(F/S)=  2/ 4 SWL H/P/D(F/S/D)=  3/120/ 8

120E CANVRL41010 1620            84 85  150/  6/  8 1023.2R

END



USA.gov is the U.S. government's official web portal to all federal, state and local government web resources and services.